Wind_Speed
6 6 5 5 6 6 6 6 6 7 7 7 8 9 9 10 10 11 11 12 12 13 13 13 14 14 14 15 15 15 16 17 18 19 19 18 19 20
6 6 6 6 7 7 8 8 8 9 9 9 10 10 11 11 11 12 12 13 14 14 15 16 17 17 17 17 17 18 18 19 19 20 19 19 20 21
6 6 7 8 7 8 8 9 9 10 10 11 11 11 12 13 13 13 14 15 16 16 17 17 18 18 19 19 19 20 20 20 21 21 21 21 21 23
8 8 8 9 9 9 10 10 10 11 11 12 13 13 14 14 15 15 16 17 17 18 18 19 19 20 20 21 21 22 21 21 22 23 23 23 24 25
10 10 10 10 11 11 12 12 12 12 13 13 14 15 15 16 17 17 18 19 19 19 20 21 22 22 23 23 23 24 24 24 25 26 26 27 27 28
12 12 12 13 13 13 13 14 14 15 15 16 16 17 18 18 19 20 20 20 21 21 21 22 23 24 25 25 26 26 27 28 28 28 29 30 31 31
14 14 14 15 15 15 15 16 17 17 18 19 19 20 20 21 21 22 22 23 23 23 24 24 25 26 27 28 29 29 30 31 31 32 33 34 35 35
16 16 16 17 17 17 18 19 19 20 21 21 22 22 23 23 24 25 25 25 26 26 27 27 28 28 29 31 32 33 34 35 35 36 37 38 39 39
17 18 18 19 19 20 20 21 22 23 24 24 24 25 25 26 27 28 28 29 29 30 31 31 31 32 33 34 35 36 36 37 38 39 40 41 42 43
19 20 21 21 22 22 23 24 25 26 27 27 27 28 28 29 30 31 32 33 34 34 35 35 35 36 37 37 38 39 39 40 41 42 44 45 45 45
22 23 23 24 24 25 26 27 28 29 29 30 31 32 32 33 34 35 36 36 36 37 38 38 38 39 39 40 41 41 42 43 44 44 45 46 46 47
24 25 26 27 27 28 29 29 30 31 32 32 33 34 35 36 37 39 39 39 39 39 39 41 41 42 42 42 43 44 44 45 45 46 47 48 48 49
25 26 27 28 29 30 30 31 32 33 34 34 35 36 38 39 40 40 41 42 42 42 42 43 43 44 44 44 44 45 46 46 47 47 48 49 50 51
27 28 29 30 30 31 32 33 34 35 36 37 37 38 40 40 41 42 42 43 44 44 45 45 46 46 47 47 47 47 48 49 50 50 50 51 52 52
29 30 31 32 33 33 34 35 36 37 38 39 40 41 42 42 43 44 44 44 45 46 47 48 48 49 50 51 51 51 51 52 53 53 54 54 54 55
31 32 33 34 35 36 37 38 39 40 41 41 42 43 44 44 45 45 46 46 47 47 48 50 51 52 52 52 53 53 53 54 55 56 57 57 57 57
33 34 35 36 37 38 39 40 41 41 42 43 44 45 46 46 46 47 48 49 49 50 50 51 52 53 54 54 54 55 56 56 57 59 59 59 59 59
35 36 36 37 38 39 40 41 42 43 44 45 46 46 47 48 48 49 50 51 51 52 53 53 54 54 54 55 56 57 58 59 60 60 61 60 59 60
37 37 38 39 40 40 41 43 43 44 45 46 47 47 48 49 50 50 51 52 53 53 54 55 55 56 56 56 56 58 59 60 60 60 60 60 60 59
38 39 40 41 41 42 43 43 44 45 46 47 47 48 49 49 50 51 53 54 55 55 56 56 57 57 58 58 58 58 59 60 60 59 59 59 59 59
40 41 41 42 42 43 44 45 46 46 47 48 49 49 50 51 52 52 54 55 56 57 57 57 57 58 59 59 59 58 58 59 59 59 59 58 58 57
41 42 42 43 44 45 45 46 47 47 48 49 49 51 52 53 53 54 55 56 56 57 57 57 57 58 59 59 59 59 58 57 58 58 58 58 57 55
42 43 44 44 45 46 47 47 48 49 50 50 51 52 53 54 54 55 56 57 57 57 57 57 57 58 58 58 58 58 57 56 56 56 56 55 55 53
Wind_Direction
298 292 284 283 281 284 285 286 288 293 296 295 294 297 298 299 298 296 293 292 289 287 284 283 284 285 285 280 282 285 285 285 284 281 277 274 272 269
298 288 279 280 283 285 285 285 285 288 294 297 298 297 298 298 298 297 297 294 292 291 289 285 285 285 285 283 283 284 284 283 283 283 281 280 277 272
297 293 288 283 282 287 289 287 286 287 291 295 295 296 297 298 298 296 297 298 294 291 289 287 286 286 285 284 285 286 285 284 283 283 281 280 279 277
291 285 284 286 282 282 285 286 287 290 293 295 296 296 297 297 296 295 297 298 296 294 292 289 287 287 287 286 287 286 287 286 285 284 282 281 279 279
286 284 284 285 284 282 280 281 284 287 290 293 296 298 297 295 296 297 297 296 296 296 295 292 289 287 287 287 287 287 287 287 287 286 285 283 283 282
284 282 282 282 282 282 282 282 283 285 288 290 293 296 296 295 294 294 294 294 295 295 295 295 293 291 288 287 288 288 288 286 285 285 284 283 283 283
282 282 282 281 282 283 283 283 284 285 288 290 292 293 295 295 294 292 292 293 293 293 293 292 292 291 290 289 288 288 287 287 286 284 284 283 282 282
280 281 282 282 282 283 283 284 286 287 288 289 290 292 293 294 293 292 291 291 291 290 291 291 290 290 289 289 289 287 286 286 285 285 284 284 283 283
279 280 282 284 284 283 283 284 286 288 289 290 290 291 291 291 292 292 291 291 290 289 289 289 289 289 289 289 289 288 288 287 286 286 285 284 284 284
279 280 281 282 283 283 284 285 287 287 289 290 290 291 290 291 292 293 293 291 290 290 289 288 288 288 288 288 288 288 288 288 288 288 287 287 285 284
280 281 282 283 283 283 284 285 286 287 288 289 290 291 291 291 292 293 293 294 292 291 290 289 289 288 289 289 288 288 288 288 288 288 288 288 288 286
282 284 284 285 285 285 286 287 287 287 288 290 290 291 292 292 293 293 293 293 293 292 291 290 289 289 289 289 289 288 288 288 288 288 288 288 288 288
284 285 286 286 286 287 288 288 288 289 290 290 290 291 291 292 292 293 293 293 293 292 291 291 290 290 290 289 289 288 288 288 287 288 288 289 289 288
286 286 287 287 287 288 289 289 290 290 290 290 291 291 291 292 292 292 292 292 292 292 292 292 291 291 290 290 290 289 288 288 288 288 288 288 288 288
287 287 288 288 289 289 289 290 290 290 291 291 292 292 292 292 292 292 291 291 292 292 292 292 291 291 291 291 290 290 289 288 288 288 288 288 288 287
289 289 289 290 290 290 290 290 291 291 292 292 292 292 292 292 292 292 292 291 292 292 292 291 291 291 291 291 291 290 290 289 288 288 288 288 288 288
291 292 292 292 291 291 291 291 291 292 292 292 292 292 292 292 292 292 292 292 292 292 291 292 292 292 292 291 291 291 290 290 289 289 289 288 288 288
291 292 292 292 292 292 293 293 293 293 293 293 293 292 293 293 293 293 293 293 293 293 292 292 292 292 292 292 292 292 291 291 290 290 289 288 288 288
292 293 293 293 293 293 294 294 294 294 294 294 294 294 294 294 293 293 293 294 294 293 293 293 293 292 292 292 293 292 293 292 291 291 290 290 290 289
293 294 294 294 294 295 295 295 296 295 295 295 295 295 295 295 295 295 294 295 295 294 294 294 293 293 293 293 293 293 293 294 293 293 291 291 290 290
293 294 295 294 295 295 295 296 296 296 296 296 296 296 296 296 296 296 296 296 296 296 295 294 294 293 293 293 293 293 294 294 294 294 293 291 291 291
295 295 295 295 295 296 296 296 296 296 297 297 297 297 297 298 297 297 297 297 297 297 296 295 294 294 294 294 293 293 293 293 294 294 294 293 292 292
296 296 296 297 297 297 297 297 297 297 297 298 298 298 299 299 298 298 297 298 298 298 297 296 295 295 295 294 294 294 293 293 293 293 293 293 292 292
Height
5866 5866 5866 5867 5867 5868 5868 5868 5869 5869 5869 5869 5869 5868 5868 5867 5867 5866 5866 5865 5864 5864 5864 5863 5863 5863 5862 5862 5861 5861 5860 5860 5859 5858 5857 5857 5857 5857
5864 5864 5865 5865 5866 5866 5866 5867 5867 5867 5867 5866 5866 5866 5865 5864 5864 5863 5863 5862 5861 5860 5860 5860 5859 5859 5858 5857 5857 5856 5856 5855 5854 5854 5853 5852 5852 5852
5863 5863 5863 5863 5864 5864 5864 5864 5864 5864 5864 5864 5863 5862 5862 5861 5860 5860 5859 5858 5857 5857 5856 5855 5855 5854 5853 5852 5852 5851 5850 5850 5849 5848 5847 5846 5846 5846
5861 5861 5861 5861 5861 5861 5861 5861 5861 5861 5861 5860 5860 5859 5858 5857 5857 5856 5855 5854 5853 5852 5851 5850 5850 5849 5848 5847 5847 5846 5845 5844 5843 5842 5841 5841 5840 5840
5859 5859 5859 5859 5859 5859 5858 5858 5858 5858 5857 5857 5856 5855 5854 5853 5852 5852 5851 5850 5848 5847 5846 5845 5844 5843 5842 5841 5840 5839 5838 5837 5836 5835 5834 5834 5833 5832
5856 5856 5855 5855 5855 5855 5855 5855 5854 5854 5853 5853 5852 5851 5850 5849 5848 5847 5846 5844 5843 5842 5841 5839 5838 5837 5836 5834 5833 5832 5831 5830 5828 5827 5826 5826 5825 5824
5852 5852 5852 5852 5851 5851 5851 5850 5850 5849 5849 5848 5847 5846 5845 5843 5842 5841 5840 5838 5837 5836 5834 5833 5832 5830 5828 5827 5825 5824 5823 5821 5820 5819 5817 5816 5815 5813
5848 5848 5848 5847 5847 5847 5846 5845 5845 5844 5843 5842 5841 5840 5839 5837 5836 5834 5833 5831 5830 5829 5827 5826 5824 5822 5820 5818 5816 5815 5813 5812 5810 5808 5807 5805 5803 5802
5843 5843 5843 5842 5842 5841 5841 5840 5839 5838 5837 5836 5835 5833 5832 5830 5828 5827 5825 5823 5822 5820 5818 5817 5815 5813 5811 5808 5806 5804 5802 5800 5798 5796 5795 5793 5791 5789
5838 5838 5837 5837 5836 5835 5835 5834 5833 5831 5830 5828 5827 5826 5824 5822 5820 5818 5816 5814 5813 5810 5808 5807 5805 5803 5800 5798 5795 5793 5790 5788 5785 5783 5781 5778 5776 5774
5832 5832 5831 5830 5830 5829 5828 5827 5825 5824 5822 5820 5819 5817 5815 5812 5810 5808 5806 5804 5802 5800 5797 5795 5793 5791 5789 5786 5783 5780 5778 5775 5772 5769 5766 5763 5761 5758
5826 5825 5824 5823 5822 5821 5820 5818 5817 5815 5813 5812 5810 5807 5805 5802 5800 5797 5795 5792 5790 5789 5786 5782 5780 5778 5776 5774 5770 5767 5764 5761 5758 5754 5751 5748 5745 5742
5820 5819 5817 5816 5814 5812 5811 5809 5807 5805 5804 5802 5800 5797 5795 5792 5789 5786 5783 5780 5777 5775 5773 5769 5767 5764 5761 5760 5757 5753 5750 5746 5743 5740 5736 5733 5729 5725
5812 5811 5809 5807 5806 5804 5802 5800 5797 5795 5793 5791 5789 5786 5783 5780 5777 5774 5771 5768 5765 5762 5758 5755 5752 5749 5746 5744 5742 5739 5735 5731 5727 5724 5721 5717 5713 5709
5804 5802 5800 5798 5797 5795 5792 5790 5787 5784 5782 5779 5777 5774 5771 5768 5764 5761 5758 5755 5752 5748 5745 5741 5737 5734 5731 5728 5725 5722 5719 5715 5710 5707 5703 5699 5695 5692
5795 5793 5791 5789 5786 5784 5782 5779 5776 5773 5770 5767 5764 5761 5757 5754 5751 5747 5744 5741 5738 5735 5730 5726 5722 5718 5715 5711 5708 5705 5701 5697 5693 5689 5685 5681 5677 5672
5785 5783 5781 5778 5776 5773 5770 5767 5764 5761 5757 5754 5751 5747 5744 5740 5736 5733 5729 5725 5722 5719 5715 5711 5706 5701 5698 5694 5691 5687 5683 5679 5674 5670 5666 5662 5659 5654
5775 5772 5770 5767 5764 5761 5758 5755 5751 5748 5744 5740 5736 5733 5729 5725 5722 5718 5714 5710 5706 5702 5698 5694 5689 5685 5682 5678 5673 5668 5664 5660 5655 5650 5645 5642 5640 5635
5764 5761 5759 5755 5752 5749 5745 5742 5738 5734 5730 5726 5722 5718 5714 5710 5707 5703 5698 5694 5689 5685 5681 5677 5672 5667 5663 5661 5658 5650 5645 5640 5636 5631 5626 5621 5618 5615
5753 5750 5747 5743 5740 5736 5733 5729 5725 5721 5717 5712 5708 5704 5700 5695 5691 5687 5682 5677 5673 5668 5664 5659 5654 5648 5644 5641 5638 5634 5626 5620 5615 5611 5607 5602 5598 5594
5742 5738 5734 5731 5727 5723 5720 5716 5711 5707 5703 5698 5694 5689 5685 5680 5675 5671 5666 5660 5655 5651 5646 5642 5636 5630 5625 5621 5618 5615 5609 5602 5595 5591 5586 5582 5579 5576
5730 5726 5722 5718 5714 5710 5706 5702 5697 5693 5688 5684 5679 5674 5669 5664 5659 5654 5649 5643 5638 5633 5628 5624 5618 5612 5607 5602 5598 5595 5591 5585 5578 5572 5567 5562 5557 5555
5717 5714 5710 5705 5701 5697 5692 5687 5683 5678 5673 5669 5664 5659 5653 5648 5642 5637 5632 5626 5621 5615 5610 5605 5600 5594 5589 5583 5579 5575 5571 5566 5561 5557 5552 5546 5540 5536